Location: Newark
(40.2094°N, 3.5722°W)
Time: 14:53:04
(UTC+00:00)

OTV 5 (USA 277) - Visible Passes

Search period start: 15 October 2019 00:00
Search period end: 25 October 2019 00:00
Orbit: 310 x 324 km, 54.5° (Epoch: 08 October)

Date Brightness Start Highest point End Pass type
(mag) Time Alt. Az. Time Alt. Az. Time Alt. Az.
16 Oct ? 05:39:36 10° NNW 05:41:34 17° NNE 05:43:31 10° ENE visible
17 Oct ? 05:53:41 10° NW 05:56:18 38° NE 05:58:52 10° ESE visible
18 Oct ? 04:36:01 13° NNE 04:36:15 13° NNE 04:37:38 10° ENE visible
19 Oct ? 04:50:31 23° NNE 04:51:04 24° NE 04:53:23 10° E visible
20 Oct ? 05:05:08 47° NNW 05:05:43 65° NE 05:08:25 10° SE visible
21 Oct ? 05:19:54 35° WSW 05:20:13 36° SW 05:22:45 10° SSE visible
22 Oct ? 05:34:48 13° SW 05:34:48 13° SW 05:35:55 10° SSW visible
